Location: Les Moreaux
(47.2278°N, 1.4966°E)
Time: 00:36:10
(UTC+00:00)

Iridium 4 Rocket - Pass Details

Date: 19 May 2025
Orbit: 582 x 886 km, 86.9° (Epoch: 18 June)

Event Time Altitude Azimuth Distance (km) Brightness Sun altitude
Rises 19:59:12 0° 2° (N) 3,154 7.2 -5.1°
Reaches altitude 10° 20:01:32 10° 8° (N) 2,275 6.4 -5.4°
Maximum altitude 20:06:28 48° 83° (E) 1,036 3.9 -6.1°
Drops below altitude 10° 20:11:46 10° 157° (SSE) 2,441 5.6 -6.8°
Enters shadow 20:13:23 - 161° (SSE) 3,048 6.1 -7.0°
